GFSCGP_500_spd_084.txt.gz
Wind_Speed
42 43 42 40 41 44 45 43 42 40 40 43 44 45 43 44 45 51 39 41 42 43 36 34 32 38 39 33 24 20 19 17 20 21 18 17 19 18 19 19 25 25 23 31
43 40 40 43 44 44 44 43 41 40 40 45 45 46 43 42 45 49 35 39 37 36 31 28 32 37 36 30 22 19 15 17 17 19 16 18 19 22 20 18 22 21 26 38
40 39 40 42 42 43 42 41 41 41 40 43 45 42 37 42 48 37 39 31 38 36 26 24 30 38 29 25 20 19 14 15 14 17 15 15 14 15 17 20 21 14 34 46
43 41 40 40 42 41 40 39 40 40 41 42 42 44 35 42 46 35 31 31 32 31 27 29 37 27 28 23 19 17 14 12 12 13 12 11 10 11 10 20 21 14 37 46
40 41 41 39 39 40 38 38 38 39 40 40 40 44 36 41 34 35 33 31 32 29 30 29 33 26 27 23 20 15 12 11 11 10 10 8 8 11 10 17 26 22 32 40
41 41 37 37 37 36 36 35 36 37 37 37 35 42 37 32 19 28 32 33 34 31 32 36 31 31 26 23 20 13 11 9 10 9 8 7 7 11 10 8 28 27 23 27
37 36 37 36 35 35 34 35 36 35 35 34 34 41 31 24 17 24 34 38 33 34 35 34 33 31 26 23 21 14 12 9 9 9 8 6 7 7 7 11 11 25 26 29
40 38 36 35 36 34 34 35 33 32 33 31 33 34 31 17 21 29 32 40 39 37 32 28 24 29 25 23 21 15 14 9 6 6 6 4 5 6 6 8 11 26 27 26
37 37 37 36 35 34 34 33 32 31 30 31 33 28 26 16 24 30 34 30 32 29 27 27 24 29 24 23 22 18 15 11 7 6 6 4 3 4 5 5 14 16 19 23
40 37 35 34 33 33 33 30 29 29 31 31 32 25 21 21 26 31 35 25 31 30 27 23 22 28 26 26 24 18 17 14 12 9 7 7 6 5 4 2 14 19 17 17
37 36 30 30 31 32 30 27 26 27 30 30 31 22 17 19 25 32 35 26 30 27 23 25 28 26 24 25 22 18 20 18 16 12 9 8 9 9 7 4 7 15 18 20
29 29 27 28 30 29 28 28 29 28 26 28 27 20 18 19 22 30 35 31 30 26 27 34 30 28 23 23 23 21 20 19 18 17 14 11 8 9 9 9 9 12 13 14
30 31 28 28 29 28 29 29 29 30 30 30 29 23 27 23 20 29 35 31 32 29 30 28 28 28 26 23 23 24 21 21 19 19 17 12 10 13 13 12 12 14 15 15
29 27 28 27 27 29 28 30 31 32 31 32 33 28 22 28 22 26 34 34 36 33 30 28 29 26 26 22 23 25 25 23 22 19 18 16 14 11 10 13 14 14 15 17
28 26 22 23 27 27 26 28 27 28 29 36 23 30 25 29 26 26 30 30 32 36 35 34 31 25 22 20 21 23 22 22 22 21 20 18 17 16 15 14 16 18 19 19
28 26 25 23 26 26 26 26 27 31 29 32 32 27 29 31 31 31 27 31 37 38 39 37 33 27 23 23 24 27 26 26 26 25 23 21 21 21 21 21 20 20 20 22
30 27 29 26 26 28 26 22 27 30 35 31 32 27 29 29 35 30 35 31 42 43 43 39 36 33 28 29 30 27 30 27 27 27 26 27 27 26 25 27 26 25 26 27
29 30 31 27 26 26 25 23 26 27 29 34 31 32 25 31 26 27 31 25 39 46 43 38 39 37 37 33 31 29 28 23 21 21 20 21 22 22 27 30 29 29 29 31
30 32 31 29 27 24 20 22 22 21 17 28 25 21 22 21 27 35 28 23 31 45 42 43 41 39 40 35 27 25 26 24 21 21 21 22 24 25 27 29 32 32 34 36
30 29 28 25 24 22 15 18 19 15 18 21 9 16 23 26 33 38 35 32 29 29 57 49 44 43 39 37 37 35 35 33 28 27 28 29 31 33 36 36 37 38 39 42
25 25 23 21 23 20 17 16 14 12 14 7 10 13 16 16 22 31 36 26 25 32 28 46 50 43 41 43 39 39 38 35 35 35 32 34 35 37 36 39 42 45 49 52
21 21 15 19 21 22 18 15 16 8 3 12 13 15 26 22 24 26 30 32 28 31 35 35 34 42 45 45 41 40 40 39 43 40 36 37 37 37 36 35 36 38 40 43
10 9 10 17 22 25 21 16 17 12 3 3 21 20 10 16 36 31 37 39 33 35 38 39 43 39 38 42 44 45 44 42 40 37 37 37 37 36 35 35 36 37 39 39
11 11 13 17 14 14 17 22 18 7 5 6 7 8 14 20 25 35 45 43 38 39 43 50 48 45 42 40 37 37 37 38 39 38 37 37 38 38 39 40 40 41 43 45
12 12 9 8 7 7 12 27 20 8 7 8 11 11 14 19 26 31 31 33 34 36 38 41 38 37 36 37 40 42 42 40 38 38 37 38 41 45 47 49 50 50 51 52
6 2 8 8 1 4 8 11 12 9 7 15 16 13 11 11 12 18 23 23 22 23 28 32 35 38 37 38 36 37 38 38 38 39 40 43 45 46 48 51 52 53 52 53

GFSCGP_500_spd_087.txt.gz
Wind_Speed
45 47 46 41 41 42 43 42 41 40 39 39 40 36 42 41 40 37 36 38 41 43 41 36 33 37 37 34 34 34 36 36 27 24 20 23 24 21 20 18 17 16 25 29
47 44 41 43 42 41 42 41 40 41 41 41 40 37 41 40 40 37 37 38 42 40 39 33 30 33 35 31 31 33 36 32 24 21 21 21 20 19 21 24 24 21 27 32
42 40 42 41 40 40 40 40 40 41 42 40 42 39 38 37 37 36 36 42 44 42 33 29 28 31 34 29 28 36 34 27 20 19 20 17 17 17 19 19 22 20 25 29
37 41 37 38 39 39 39 40 40 39 40 39 39 39 33 33 36 37 39 45 43 38 30 27 27 30 26 25 30 34 29 21 18 18 16 15 13 14 15 20 15 24 27 28
39 33 37 41 42 37 38 38 39 39 38 38 36 37 32 36 37 41 44 47 40 31 28 26 29 31 27 25 35 26 25 17 15 16 14 13 11 12 11 19 17 23 18 24
41 40 41 40 39 37 35 36 36 36 36 37 35 33 29 33 34 35 44 44 39 35 28 27 32 31 28 30 30 25 22 16 14 16 12 12 8 8 7 13 6 20 23 21
43 41 40 37 35 34 34 35 34 34 35 34 32 32 33 30 28 32 31 30 30 32 25 32 34 27 27 31 28 24 21 16 13 14 12 12 8 6 5 6 10 15 21 22
37 37 35 34 34 35 35 34 33 34 33 32 31 35 32 27 25 28 27 27 28 28 28 34 33 28 29 32 26 24 21 17 15 12 9 9 8 5 4 5 6 12 22 23
38 37 37 36 35 35 34 33 32 32 31 31 31 29 27 22 22 21 24 27 27 30 33 31 27 29 33 27 26 24 24 20 15 12 9 8 7 5 4 4 6 6 22 15
35 36 37 36 35 34 32 31 30 30 30 32 32 27 22 21 18 25 27 32 31 34 33 29 29 28 31 27 26 26 25 23 17 13 10 7 8 7 5 5 5 13 14 19
34 34 32 26 31 32 31 30 30 29 28 31 31 24 17 19 20 25 28 33 32 34 37 34 29 29 25 24 26 27 26 25 18 14 12 9 9 10 7 5 4 11 13 17
31 30 27 29 28 27 30 30 30 28 30 31 31 22 18 16 21 24 30 32 34 35 35 34 32 32 24 23 25 27 26 26 19 17 13 9 7 7 7 4 2 5 9 10
27 26 24 25 26 26 28 29 30 29 30 29 30 23 16 17 21 24 25 29 35 34 37 35 36 31 30 23 24 28 30 24 21 18 15 11 8 7 7 6 4 6 7 8
27 24 23 24 24 26 27 25 26 28 28 28 27 21 17 19 24 25 25 32 39 37 35 30 32 33 35 25 25 28 30 24 21 19 16 14 12 9 7 8 8 7 8 11
29 24 26 25 26 27 24 23 27 28 27 33 19 26 17 22 26 31 27 34 39 37 34 32 31 40 33 29 28 26 27 25 22 21 19 17 16 14 12 11 10 11 11 11
31 28 24 20 25 29 24 22 25 28 29 31 27 13 24 24 22 32 27 34 38 36 38 34 31 32 30 27 26 25 24 27 26 23 21 20 20 20 18 17 16 16 16 18
17 21 15 15 13 16 21 20 24 27 28 31 26 20 20 24 21 26 30 30 36 38 36 38 34 33 31 29 27 27 29 29 29 27 26 26 24 23 22 21 20 20 21 23
14 18 17 19 17 19 22 20 20 23 25 28 23 20 23 21 21 25 28 31 32 42 45 43 38 35 34 33 32 29 29 28 29 31 30 25 23 19 19 19 21 23 23 24
11 14 15 19 19 20 22 20 20 20 20 24 21 22 25 21 20 24 26 27 34 37 48 46 43 41 40 40 34 31 30 26 28 31 25 23 23 23 20 20 21 23 24 24
11 12 15 20 23 22 17 17 17 17 17 19 17 20 26 23 23 19 29 29 33 28 39 45 46 48 45 41 39 40 34 30 25 26 22 22 23 23 21 20 21 26 30 33
16 16 17 19 20 18 16 14 13 12 13 16 21 25 23 23 21 20 24 35 27 29 28 47 52 51 44 40 40 39 45 29 28 29 28 27 26 26 28 29 27 28 31 34
16 16 18 19 20 13 10 8 7 9 14 15 18 14 18 19 22 20 19 23 30 32 22 34 55 52 49 45 42 43 41 39 36 34 38 36 32 34 35 35 34 34 35 37
15 18 16 16 10 5 7 9 7 12 5 3 5 5 6 22 27 22 23 25 27 31 26 29 31 37 51 44 54 55 53 47 43 43 44 37 44 39 42 39 38 39 38 38
17 14 10 7 4 6 9 11 12 17 7 4 4 4 9 12 18 28 31 30 30 30 33 31 33 36 37 37 51 65 52 46 48 48 47 43 45 47 42 40 40 40 41 43
12 8 8 6 3 7 10 12 21 20 11 2 8 9 10 11 18 21 29 34 39 39 39 38 35 36 38 41 41 38 38 40 38 36 38 38 42 43 41 41 43 45 48 49
8 5 5 4 6 4 1 9 19 19 12 9 10 12 12 11 11 11 15 20 25 27 29 30 32 32 36 39 42 47 43 40 41 42 42 42 42 43 43 45 47 49 51 52

GFSCGP_500_spd_090.txt.gz
Wind_Speed
42 43 55 51 47 46 45 43 44 46 45 43 41 39 39 39 35 35 34 35 34 34 37 38 37 39 36 31 32 33 36 29 33 31 31 30 29 26 24 25 25 25 22 21
47 40 41 50 43 45 44 42 42 42 42 42 39 40 39 40 38 35 35 35 35 37 39 38 36 41 34 31 31 31 30 30 32 31 30 28 28 24 25 24 25 27 21 24
50 43 37 48 49 49 48 40 40 41 41 39 39 39 41 40 36 35 36 36 36 37 38 39 40 41 33 30 25 29 31 30 33 28 28 28 23 23 23 24 24 26 27 27
51 45 41 40 49 39 36 36 37 38 37 36 38 42 41 37 34 34 34 35 36 37 38 39 42 39 32 28 28 31 31 31 28 30 28 25 19 20 22 21 23 26 26 25
49 45 40 35 41 44 41 37 36 36 36 36 34 38 40 37 31 31 34 36 37 39 41 42 44 34 33 30 28 31 29 26 27 29 26 21 17 19 19 19 22 23 25 28
44 44 40 35 37 33 36 32 34 34 34 39 34 34 35 36 29 29 33 34 37 40 39 41 36 33 32 30 29 27 25 25 28 27 23 18 18 17 16 16 17 24 22 29
45 46 43 39 34 38 40 39 36 33 35 33 32 33 34 30 28 27 31 33 38 36 33 23 29 31 31 30 25 26 25 26 26 23 19 18 18 16 14 15 14 16 22 28
43 46 40 38 34 33 32 31 32 33 32 31 30 30 35 27 27 29 31 36 32 31 24 23 26 29 32 26 30 27 27 26 24 19 18 19 18 15 12 12 12 10 15 23
39 39 36 35 33 31 33 31 30 31 32 30 28 25 30 25 26 27 31 29 25 25 23 26 28 31 31 29 29 28 27 24 24 16 18 17 14 10 10 9 9 11 12 22
30 35 34 36 35 34 32 31 30 31 28 28 28 24 24 28 25 27 26 28 25 25 26 28 30 32 31 31 25 28 28 26 22 17 18 16 12 10 9 8 8 9 12 15
23 27 28 31 33 31 33 30 28 25 26 26 27 20 26 25 25 27 24 28 26 27 29 30 30 34 36 32 32 30 28 25 23 19 18 17 12 11 8 6 6 8 8 16
24 23 24 25 27 29 29 27 25 27 28 27 27 26 22 23 23 21 25 28 28 28 30 32 37 37 35 31 28 28 24 26 25 20 19 17 11 8 6 4 1 3 10 13
32 28 25 26 25 24 21 23 25 25 26 25 28 25 18 20 24 21 24 28 31 30 31 35 36 33 31 29 30 24 24 28 25 22 21 18 13 9 6 5 4 6 7 8
31 29 26 21 22 20 21 21 21 23 23 26 26 22 20 23 22 21 24 27 29 34 33 37 40 36 35 34 29 23 25 28 26 24 23 19 15 12 8 9 7 6 7 8
31 29 25 21 19 19 18 20 22 23 25 26 21 20 22 25 22 19 23 28 28 32 40 38 40 39 37 30 31 27 27 26 27 25 24 20 19 17 13 10 9 10 10 10
36 29 23 23 21 19 19 20 22 22 24 23 19 22 20 20 22 17 20 27 31 34 37 40 41 38 37 36 34 29 25 25 27 27 25 24 24 21 18 17 16 14 14 14
37 33 24 22 22 24 20 19 18 20 25 25 19 20 19 21 21 18 19 24 32 36 37 36 35 35 34 38 39 33 30 29 30 30 31 29 27 25 23 21 19 18 18 19
29 26 19 19 17 14 15 14 16 17 22 24 24 22 20 19 19 18 19 20 32 35 34 36 37 37 36 44 38 35 33 33 32 34 34 33 31 29 27 25 22 23 23 22
14 9 8 7 10 12 10 13 16 16 18 20 21 21 22 16 21 23 18 19 28 36 41 35 43 38 35 34 34 35 34 32 33 36 36 35 35 33 29 25 22 21 22 22
13 8 5 5 8 12 13 12 16 18 21 22 21 18 22 21 22 23 22 21 25 31 42 39 40 42 41 39 39 37 37 35 33 31 31 34 38 37 30 28 25 23 22 23
5 3 1 5 9 10 10 11 14 17 18 20 22 20 22 26 26 25 25 23 25 29 31 43 53 51 47 45 42 41 40 40 38 37 42 33 30 33 34 33 30 27 25 26
2 5 9 10 9 8 11 13 14 14 17 17 19 21 25 24 23 25 28 24 27 27 25 25 41 51 53 52 52 51 46 44 42 38 38 38 38 35 34 33 33 31 32 32
6 8 13 12 11 11 12 15 14 15 13 10 10 9 13 14 21 27 30 24 28 32 22 25 27 48 55 62 57 63 53 51 51 53 54 48 44 43 40 36 37 38 39 40
10 13 18 15 10 11 13 12 15 15 10 6 2 5 7 10 6 9 18 26 26 23 23 24 30 30 43 43 52 43 53 54 53 51 59 59 60 51 48 39 41 47 53 44
20 20 14 9 12 13 10 7 12 17 13 5 5 5 5 3 6 7 15 21 26 29 31 30 28 32 32 35 43 53 62 66 62 57 54 59 54 57 55 53 48 51 55 48
9 11 9 8 7 5 4 5 11 19 15 12 7 7 11 7 7 6 9 14 17 19 22 25 29 33 38 40 40 41 42 42 44 47 49 50 51 52 48 48 46 45 48 50

GFSCGP_500_spd_093.txt.gz
Wind_Speed
52 54 53 48 48 42 47 53 57 55 43 55 51 49 49 47 47 38 39 39 38 38 37 39 37 38 37 38 36 34 32 33 32 31 29 32 29 27 27 26 29 30 28 28
57 56 53 49 46 46 44 52 56 47 47 49 44 47 45 45 43 40 37 38 39 39 39 37 37 39 38 37 36 34 36 35 25 29 30 34 28 26 26 27 30 30 27 28
57 55 54 49 49 45 43 46 46 50 39 44 39 46 40 40 44 39 37 38 41 40 38 37 38 39 38 37 36 33 35 34 26 29 33 31 24 26 25 29 29 27 27 28
50 47 50 53 47 44 43 41 36 40 44 41 39 41 24 43 45 37 36 35 37 37 37 37 39 38 37 37 35 35 34 34 27 31 32 26 25 24 26 28 27 26 28 27
43 46 41 41 44 41 38 38 46 46 47 41 40 40 32 33 36 34 32 37 36 37 38 37 37 37 37 38 36 34 36 33 29 32 27 24 24 25 27 27 25 26 27 29
36 34 34 40 37 34 32 38 37 30 29 36 38 35 20 18 31 32 31 31 35 37 37 37 36 36 36 36 32 34 34 30 28 28 23 23 24 27 27 24 25 26 28 31
27 33 33 38 39 38 34 36 33 32 36 37 15 27 25 32 39 24 28 35 36 36 36 36 35 34 37 32 31 35 32 28 28 22 23 22 26 26 24 23 25 27 24 25
21 29 40 37 41 33 35 35 23 19 21 20 24 29 22 37 29 27 29 31 33 34 36 35 32 31 29 29 31 33 28 30 22 25 21 22 24 23 21 22 23 24 22 27
19 23 29 40 39 38 32 35 28 27 21 25 16 9 26 23 29 29 29 31 33 34 32 30 25 23 26 26 31 30 28 27 24 20 19 22 22 21 19 19 20 21 22 29
22 24 31 31 34 38 31 28 27 30 29 22 22 15 22 24 26 26 26 28 30 29 28 23 22 25 28 29 29 27 28 25 26 18 20 21 20 18 17 19 19 19 19 23
23 26 31 30 34 33 31 26 28 28 26 19 13 18 29 27 23 20 24 26 28 29 24 24 25 29 30 29 28 26 25 28 27 18 21 21 19 16 17 19 18 18 17 16
24 20 25 20 25 27 25 27 24 26 22 27 24 21 16 23 23 23 23 23 27 30 23 26 29 30 31 31 30 29 30 33 30 20 21 20 19 15 15 17 14 13 12 11
29 20 22 21 22 25 24 24 25 27 26 21 24 21 25 27 25 23 23 23 24 29 25 28 31 32 34 36 34 36 33 34 26 22 21 21 20 16 15 13 10 8 7 7
33 17 31 29 22 22 24 24 25 21 20 20 23 24 24 24 24 22 22 25 26 27 30 27 30 35 36 39 43 39 30 28 27 24 22 21 21 19 17 15 13 11 7 8
29 21 19 18 22 23 23 19 18 19 21 19 19 17 21 25 20 21 20 25 28 28 31 30 29 36 37 37 31 38 35 30 30 26 24 23 22 21 21 17 15 15 14 12
16 34 31 24 14 15 16 17 16 17 17 15 17 17 24 19 19 19 21 24 25 31 33 31 33 35 39 42 38 38 32 30 28 24 24 24 24 24 24 21 17 15 16 16
38 27 25 24 20 16 14 13 14 16 19 13 17 17 18 17 14 18 18 22 23 28 33 31 32 37 37 44 37 43 37 30 29 23 24 28 29 27 28 25 22 19 18 16
40 29 22 24 23 14 15 14 14 14 11 15 17 18 18 15 14 18 19 18 20 22 26 31 33 34 36 36 37 35 32 33 33 32 29 31 34 32 31 30 27 25 23 22
32 26 26 23 17 13 11 9 10 11 14 12 15 16 15 12 16 17 18 21 21 22 22 28 33 32 39 40 39 40 41 42 38 36 33 34 36 37 35 35 33 31 29 28
27 22 15 13 8 9 11 11 10 10 14 14 15 18 15 11 14 20 20 21 22 22 22 23 35 32 31 38 40 41 40 40 39 35 35 36 35 40 40 40 39 37 34 34
17 17 12 9 6 6 8 10 11 12 17 16 16 18 19 15 16 20 21 22 24 23 24 24 35 29 40 44 42 34 39 35 37 36 36 33 36 37 41 46 44 43 39 37
11 12 7 6 2 5 9 11 12 14 16 17 18 17 20 19 20 23 23 24 26 25 24 24 25 35 42 43 38 38 45 37 41 40 41 38 43 38 40 42 35 42 44 41
4 5 2 3 6 11 13 13 14 16 17 15 13 16 16 17 20 20 22 23 24 26 21 20 18 17 33 50 46 46 47 48 45 45 52 46 45 45 46 59 45 44 47 48
3 2 5 9 14 16 16 15 15 17 17 12 8 5 4 4 5 9 16 17 25 26 24 24 21 23 26 21 53 60 53 59 56 70 67 59 61 65 47 56 51 47 57 54
7 8 10 12 17 23 21 15 16 17 15 10 5 4 4 6 7 6 9 12 15 18 23 23 24 27 27 26 31 39 34 51 53 53 63 64 60 59 52 59 55 59 58 59
11 8 11 10 14 17 17 15 13 12 13 12 7 6 6 6 8 8 11 12 14 15 19 19 23 26 26 29 30 32 36 36 45 47 42 42 51 56 65 64 65 67 67 69

GFSCGP_500_spd_099.txt.gz
Wind_Speed
49 53 53 53 57 61 63 66 64 64 53 51 54 56 53 44 45 48 48 56 60 53 44 46 44 41 42 43 39 40 38 34 31 27 32 33 33 34 34 34 32 29 26 27
54 56 57 63 66 69 70 68 65 57 52 49 50 54 47 40 41 40 50 47 44 33 37 40 40 41 39 37 39 38 37 34 30 25 32 33 33 34 34 34 31 28 25 29
60 63 65 68 68 68 64 59 55 53 49 47 49 53 43 36 42 31 32 41 34 39 37 38 38 46 41 37 35 36 34 34 33 27 30 32 34 35 32 32 25 26 27 29
64 66 68 68 67 52 52 49 42 36 37 47 43 49 39 33 32 23 21 34 28 36 38 45 46 44 44 40 36 36 39 36 33 30 28 32 35 34 32 31 27 28 27 27
68 69 65 60 54 46 44 35 31 23 31 43 47 42 31 27 29 29 21 21 37 42 48 48 46 42 35 37 39 39 36 38 33 33 28 35 35 33 32 30 29 26 28 27
68 64 57 52 37 37 32 41 38 28 34 46 36 35 29 23 25 16 20 28 33 36 47 46 44 40 39 38 40 37 41 36 32 30 29 36 37 29 30 29 28 27 29 26
61 53 48 30 28 25 29 42 38 30 36 36 22 27 21 14 29 21 30 32 32 33 33 33 34 33 34 37 38 37 37 31 29 31 34 39 36 28 30 29 26 28 27 27
54 44 32 32 29 25 31 41 38 33 26 11 11 16 4 18 28 28 35 30 26 29 37 32 37 29 32 30 31 34 33 28 31 33 38 38 31 29 28 29 28 25 26 25
43 22 16 21 30 25 24 45 28 27 23 12 14 2 15 20 45 38 22 32 31 25 25 30 31 32 36 40 37 33 33 35 37 36 36 34 29 29 28 28 26 26 23 25
20 12 15 20 21 21 30 42 34 31 30 16 17 16 25 19 30 27 41 42 29 24 31 27 31 33 34 36 35 34 36 34 33 32 33 29 26 28 28 29 30 23 22 26
16 17 15 20 13 15 26 33 27 29 27 10 10 24 31 23 18 18 25 27 25 25 24 24 26 30 33 32 31 32 30 28 26 28 27 25 26 26 26 24 22 21 23 26
17 14 17 15 14 18 21 17 28 29 25 14 9 6 24 27 19 42 28 10 21 24 23 20 24 26 27 30 32 31 28 25 25 24 23 26 28 25 24 21 22 22 23 25
14 13 15 14 12 22 11 18 23 21 27 33 15 12 13 5 21 27 22 26 21 18 19 21 24 25 26 29 33 27 27 25 25 23 23 28 26 23 21 23 22 23 22 23
12 12 11 16 15 19 12 17 25 28 24 25 27 18 13 13 3 4 18 20 16 17 15 18 21 24 25 27 29 27 28 26 25 27 28 30 25 26 24 23 22 24 21 22
10 13 18 19 26 25 20 22 25 24 16 27 21 35 15 4 6 6 7 9 15 18 18 16 17 20 24 24 28 28 28 28 29 32 32 32 29 29 26 22 22 24 21 19
7 6 5 11 22 29 20 27 23 15 26 15 29 19 21 16 14 21 17 12 15 18 18 18 17 19 23 24 27 30 31 32 34 34 35 34 33 33 30 22 23 23 21 18
6 9 17 29 34 31 31 20 33 14 20 17 15 16 20 15 15 12 14 14 16 17 18 17 15 17 20 23 27 32 35 37 38 38 38 36 35 34 29 23 25 24 22 20
9 6 1 17 17 11 11 9 6 7 4 4 6 10 8 10 13 14 17 19 17 17 17 17 17 17 19 23 27 31 35 39 40 40 39 39 40 39 33 30 28 26 23 23
4 13 10 16 12 12 11 9 8 6 4 4 5 6 8 10 13 17 20 19 18 16 16 17 17 17 18 21 26 31 35 37 41 42 43 41 38 37 38 32 29 30 27 25
14 15 10 14 11 10 6 7 7 5 2 3 6 9 9 11 15 17 19 19 20 19 18 17 18 19 19 21 25 31 33 36 39 44 44 46 45 35 39 32 36 32 31 30
18 12 8 3 5 7 4 3 2 2 5 5 8 10 11 12 13 14 16 17 17 17 18 18 19 20 20 20 24 26 30 37 37 39 43 37 41 38 43 37 40 36 35 34
22 19 14 9 9 9 9 6 2 2 5 8 11 12 12 13 14 13 15 19 19 17 17 17 20 20 20 20 20 25 29 42 38 41 44 43 42 51 48 42 46 46 42 40
19 15 15 13 11 12 10 6 3 3 7 10 13 11 10 11 13 14 13 14 17 18 18 19 19 22 22 20 15 16 20 35 40 45 53 48 48 49 48 49 45 54 49 46
17 15 12 9 5 5 3 3 7 8 7 10 12 9 8 5 2 3 6 10 14 15 15 16 17 19 21 19 17 15 15 14 17 29 46 57 49 48 58 55 56 60 53 52
8 8 5 2 5 2 7 10 10 7 5 5 9 8 8 8 2 2 4 4 5 4 6 8 9 12 16 18 17 18 18 17 19 18 18 21 35 52 54 56 61 56 60 60
9 8 6 3 7 11 11 6 6 6 6 4 6 8 7 7 7 8 8 9 11 10 9 8 6 7 9 12 14 15 17 18 19 21 22 24 23 25 27 35 42 44 51 60

GFSCGP_500_spd_102.txt.gz
Wind_Speed
43 45 45 44 47 50 54 57 61 58 56 63 68 68 66 58 58 55 47 51 53 54 57 55 56 60 53 50 51 49 50 45 41 37 38 35 35 38 36 33 34 36 37 38
43 45 46 49 53 57 59 61 63 66 65 62 63 65 63 59 56 48 47 44 42 44 44 47 47 55 52 50 50 50 48 45 39 35 33 36 39 39 39 33 33 36 36 36
46 45 48 54 57 62 65 67 69 70 68 61 58 65 61 56 50 42 40 37 40 39 39 46 43 45 47 54 48 44 43 41 35 33 34 37 38 38 35 33 35 36 37 37
47 48 53 59 61 65 68 63 59 58 55 55 44 60 56 50 44 37 33 32 38 37 42 44 43 44 51 50 48 51 42 36 36 33 32 32 33 38 36 36 37 37 36 38
46 54 60 65 67 63 64 55 52 49 53 46 38 46 41 36 34 32 29 37 37 35 46 49 50 49 51 48 44 38 39 39 38 34 30 30 34 40 39 35 37 37 36 38
53 60 67 70 64 61 53 50 48 45 40 42 24 31 14 18 19 24 35 36 39 34 44 49 52 52 45 41 38 39 35 33 33 32 31 28 37 40 38 36 37 35 36 36
60 63 69 59 58 50 42 36 33 30 36 28 20 33 17 11 22 26 47 40 35 32 45 45 42 33 36 34 34 37 36 37 34 33 31 31 35 42 37 38 37 33 35 34
68 69 62 50 41 43 28 26 26 30 30 26 23 23 16 15 27 35 46 40 30 27 32 40 38 37 31 33 38 37 38 36 32 35 36 36 41 40 38 38 34 33 33 35
65 62 39 27 29 28 22 27 21 30 32 28 17 16 14 22 27 40 41 20 26 31 30 30 24 29 34 35 35 33 33 28 34 38 35 37 36 37 38 36 32 31 35 37
46 31 8 17 20 20 24 20 23 35 34 26 8 13 13 15 21 24 37 21 17 36 27 22 19 30 37 37 41 36 32 31 33 31 34 36 34 35 36 32 32 34 36 35
16 9 8 20 20 19 18 20 22 28 36 21 18 10 7 19 19 29 32 11 23 30 17 21 19 25 29 32 35 37 35 33 34 34 35 35 32 35 31 32 34 35 37 39
6 4 15 14 15 18 22 18 26 31 25 20 26 17 12 25 14 12 31 32 22 22 22 25 26 29 23 28 29 28 27 33 34 33 30 31 32 31 31 32 34 36 38 29
7 1 10 14 13 11 11 15 24 24 12 24 15 9 8 8 3 4 21 19 13 18 26 28 22 26 28 25 23 29 30 33 34 31 29 30 31 30 32 35 36 32 27 28
2 3 2 12 13 18 17 21 19 28 17 24 8 11 10 10 1 2 17 15 20 24 18 18 20 22 24 26 31 31 32 32 34 33 29 28 28 30 32 32 29 22 26 27
11 9 5 15 17 20 13 12 23 19 16 19 9 18 18 3 1 3 5 2 13 13 15 15 18 19 24 29 32 31 32 34 34 32 30 28 29 29 33 27 28 28 29 28
14 6 11 14 18 21 14 14 21 14 15 13 17 23 16 19 9 9 9 5 7 9 11 16 19 19 20 26 30 34 32 33 32 34 34 33 32 31 31 29 30 30 30 30
11 27 31 19 17 16 13 18 16 16 8 14 18 12 13 10 14 17 11 12 11 11 11 14 15 16 17 22 26 28 31 32 33 33 35 35 37 35 34 34 31 36 36 33
14 8 19 25 24 21 17 12 18 28 12 10 8 1 1 6 11 14 14 14 13 12 13 13 15 16 16 18 23 28 30 31 33 34 36 38 39 35 34 36 31 40 38 34
3 7 19 21 14 16 15 15 14 12 7 3 1 0 2 4 5 9 12 15 15 15 15 15 15 15 17 17 19 25 29 31 33 36 37 38 39 39 37 34 28 39 38 37
7 15 10 16 12 13 13 13 10 7 3 3 1 3 6 6 8 11 13 15 17 17 17 17 15 16 19 18 19 23 28 33 36 37 38 41 42 37 41 38 41 38 42 35
12 17 15 7 7 6 12 11 9 7 4 1 1 3 6 7 10 13 16 17 17 17 16 17 19 20 19 20 21 22 23 28 36 39 38 42 43 42 39 44 40 35 43 36
15 11 8 2 6 8 8 6 6 4 2 1 3 6 8 11 14 16 17 19 19 19 19 19 19 19 21 21 22 22 22 25 28 34 39 43 43 44 50 46 46 45 44 44
16 15 9 9 8 10 10 8 5 1 3 5 8 10 12 12 14 16 16 17 18 20 20 20 20 20 22 23 22 18 19 21 26 30 36 46 43 51 51 56 49 46 46 49
16 16 18 16 13 10 7 4 2 5 7 10 13 14 11 9 9 12 12 13 15 16 17 16 17 19 20 22 21 19 21 20 18 19 22 34 42 35 45 49 48 49 55 53
18 18 15 13 12 8 4 3 5 6 9 10 11 11 9 8 9 6 4 2 3 6 6 9 11 13 14 15 18 19 19 19 21 19 20 19 23 21 27 40 40 51 57 52
13 10 9 6 4 2 8 8 7 6 8 9 8 8 6 7 5 5 5 6 7 6 6 6 6 7 7 8 10 10 13 14 15 17 19 21 22 24 26 26 28 36 43 49

GFSCGP_500_spd_105.txt.gz
Wind_Speed
46 46 44 44 46 48 50 53 53 50 49 59 63 65 64 63 67 67 67 67 67 67 61 51 55 59 61 62 62 60 58 49 46 44 42 44 46 46 45 42 41 38 34 36
43 45 44 45 47 48 50 52 54 54 56 64 65 69 69 71 77 75 74 75 73 70 57 49 56 60 62 59 59 60 58 49 48 48 43 42 46 47 46 45 43 35 34 37
46 45 46 48 48 51 52 56 58 61 61 64 72 77 77 80 74 73 67 64 61 61 58 50 53 56 58 58 58 60 56 50 51 48 46 45 46 48 48 47 37 33 32 39
48 45 46 48 50 55 55 59 63 65 70 74 72 88 87 71 65 50 44 52 58 53 50 51 51 53 54 55 55 58 53 50 51 45 44 46 47 46 46 40 37 36 41 43
44 46 50 51 52 57 58 62 66 68 71 72 78 73 73 42 32 24 34 45 50 49 49 48 47 50 56 57 54 55 54 51 46 41 36 42 46 45 44 43 40 38 41 41
45 48 50 52 55 61 65 69 71 69 65 69 61 45 16 8 15 19 27 39 42 40 41 42 46 50 56 54 50 49 51 51 47 40 35 39 42 41 41 40 39 38 40 40
45 50 54 58 62 66 67 72 71 67 54 52 29 27 23 17 23 22 25 33 37 41 41 42 45 45 54 51 48 44 49 47 44 38 38 39 40 39 42 43 41 40 39 40
48 52 60 64 65 65 65 57 51 38 26 18 17 18 15 18 25 21 23 34 35 38 33 37 41 39 44 41 44 38 39 40 40 38 39 43 47 45 44 40 43 41 39 40
55 55 62 60 62 60 45 33 18 20 16 16 18 15 11 21 20 22 23 25 33 26 29 33 25 32 35 36 36 35 37 33 36 40 42 38 41 43 41 41 42 38 38 39
60 60 53 44 48 25 13 13 18 18 19 20 18 14 10 21 24 28 25 22 18 12 18 26 25 25 29 38 36 40 36 33 35 38 39 42 44 42 41 40 39 38 40 36
53 45 19 22 19 14 8 13 17 15 19 20 23 19 16 25 6 19 18 13 7 27 18 31 20 24 24 28 43 38 34 33 37 41 40 38 39 38 35 35 36 36 36 35
12 7 8 12 11 5 5 10 10 18 16 18 18 15 18 17 8 4 23 26 18 18 19 26 23 24 20 21 24 32 39 40 39 38 36 32 36 35 35 36 34 32 34 36
3 5 10 8 9 9 7 9 17 17 21 22 18 19 10 4 7 5 10 20 23 12 23 19 15 17 18 21 24 29 36 42 41 38 35 32 35 29 33 32 30 33 33 36
8 7 8 10 11 11 11 10 7 13 11 18 19 8 14 6 5 5 7 12 17 10 8 6 11 15 19 23 27 22 25 30 32 35 28 31 29 30 30 31 32 34 33 34
9 5 6 7 13 9 5 9 10 6 16 13 14 7 10 5 4 12 12 3 5 5 5 7 10 14 16 18 22 24 24 21 19 25 30 31 30 29 30 31 32 31 33 37
9 10 2 9 12 11 6 7 8 11 12 12 6 14 15 9 9 3 7 8 6 3 2 8 10 11 12 14 19 21 23 25 26 22 29 29 31 31 31 31 32 31 36 37
7 15 12 10 12 12 11 7 4 16 10 3 9 11 6 8 6 3 5 6 6 4 5 9 11 14 12 16 19 21 26 25 27 29 23 26 33 34 34 33 32 28 32 31
10 16 19 16 13 16 10 13 9 10 7 5 5 4 3 5 7 7 6 7 7 9 12 10 7 9 12 14 17 19 23 24 28 31 32 35 37 36 36 36 34 34 32 28
1 8 13 17 14 14 14 11 11 13 9 7 5 3 3 6 7 8 7 7 8 10 11 11 11 11 12 15 15 17 21 24 26 29 32 34 38 37 38 38 37 38 36 34
4 12 20 23 19 17 16 15 14 15 8 7 4 3 4 5 7 7 7 6 8 7 8 10 12 14 15 15 16 17 19 21 25 28 31 35 37 38 37 37 37 38 38 39
7 8 12 11 11 12 11 10 9 10 8 4 3 2 3 5 7 9 10 11 10 11 11 11 12 14 17 18 17 19 21 21 24 27 31 35 36 38 38 38 40 46 40 40
9 10 7 8 11 14 10 8 7 8 6 3 3 6 8 9 10 13 13 13 14 14 15 14 15 16 17 19 20 20 22 24 25 26 29 33 37 40 40 41 40 41 49 44
16 12 6 5 9 9 8 8 6 4 2 1 5 8 9 12 13 14 14 14 15 15 16 15 15 16 18 21 20 22 24 25 24 25 25 28 33 36 41 41 42 49 54 44
19 15 10 12 13 13 10 7 3 1 3 6 9 11 10 10 10 12 14 15 15 14 15 15 15 15 16 16 19 21 23 22 22 24 24 25 26 29 37 43 48 51 54 51
17 19 15 17 14 10 5 3 2 2 4 9 10 10 9 7 6 7 10 10 10 10 11 10 11 11 13 14 16 18 20 19 20 22 25 27 26 26 28 29 28 38 47 53
17 19 18 14 13 10 5 3 3 7 11 10 7 7 7 4 5 4 5 7 7 7 7 6 6 7 8 9 11 12 13 14 15 16 16 19 23 26 27 27 27 29 31 30

GFSCGP_500_spd_108.txt.gz
Wind_Speed
48 51 52 49 51 52 53 53 54 49 53 55 54 53 52 53 56 56 57 58 59 59 57 59 59 61 62 59 59 59 61 62 64 57 48 52 43 43 44 45 45 45 45 44
49 50 48 48 49 51 52 53 53 52 54 55 56 56 53 55 60 61 61 65 69 70 70 71 71 68 69 65 63 63 61 63 62 62 51 50 45 42 47 45 50 49 47 43
53 51 49 51 51 51 52 53 53 54 57 56 58 57 55 59 61 68 70 75 78 81 83 84 83 80 75 76 68 65 65 64 63 59 60 51 51 45 46 46 48 49 46 45
55 52 50 51 51 53 53 53 55 55 57 59 62 68 56 65 66 71 78 83 85 86 87 86 82 77 73 71 71 66 64 63 65 60 58 51 48 45 39 41 46 47 49 46
51 52 50 51 51 51 53 54 56 58 59 64 57 72 65 72 73 78 79 72 65 68 67 65 65 63 63 66 65 68 65 63 64 65 53 50 48 45 44 41 44 48 50 47
49 48 48 50 51 52 54 56 58 62 66 71 64 71 73 69 67 57 40 34 37 45 42 41 41 44 48 55 55 61 65 64 64 57 48 50 44 46 44 42 44 50 49 49
46 46 47 50 51 53 55 61 65 67 71 73 69 65 61 50 30 21 23 28 33 35 32 30 30 32 36 42 49 52 56 58 56 50 49 44 42 40 39 38 43 49 48 51
44 42 46 50 55 57 61 67 69 65 66 63 49 41 33 15 14 18 20 21 25 28 27 25 28 32 36 40 44 49 54 55 47 46 47 41 41 38 38 40 45 50 48 50
43 43 47 55 57 59 62 60 61 62 50 37 21 18 9 5 18 24 24 21 23 23 23 20 25 29 31 35 38 40 46 48 42 44 46 46 46 41 42 46 43 46 49 49
45 47 52 56 60 63 60 46 31 21 15 13 7 17 6 9 21 22 24 25 25 28 21 25 21 30 26 26 32 37 38 42 44 43 50 48 48 47 48 45 43 43 46 46
48 53 53 57 52 35 11 10 6 6 11 13 8 16 9 9 18 23 21 17 20 19 11 12 15 19 17 25 20 34 39 39 36 38 42 43 45 48 48 45 44 45 46 50
53 50 37 18 11 5 4 6 9 9 13 13 13 13 11 21 18 22 20 15 12 9 17 18 8 14 13 17 19 30 25 28 36 31 35 39 46 45 42 41 42 45 49 44
20 10 9 5 3 5 5 3 9 15 13 13 17 11 18 6 7 18 18 13 19 18 15 11 20 17 14 11 8 10 31 29 32 30 38 40 42 41 42 42 42 45 49 43
5 7 10 12 8 6 7 13 10 7 9 11 10 11 12 7 9 15 5 5 11 8 10 19 15 12 10 10 11 14 16 27 26 34 33 39 44 46 43 42 43 45 43 39
9 7 10 10 9 10 8 7 10 4 9 5 4 8 5 7 9 15 17 16 8 9 9 7 5 3 5 9 9 12 13 14 12 27 40 34 38 41 43 41 42 34 35 30
4 3 13 11 9 12 7 8 7 6 5 5 5 6 9 8 12 7 10 14 14 10 9 1 3 3 6 9 7 11 13 13 19 20 22 37 25 26 37 30 31 31 30 30
5 1 9 10 8 13 8 6 9 7 7 2 4 1 2 6 5 7 7 8 8 6 4 1 2 6 6 10 10 10 9 14 12 10 9 18 28 29 30 32 31 33 31 29
6 17 18 14 13 13 6 9 8 10 9 2 1 5 3 2 4 5 5 7 5 4 5 5 4 5 7 8 10 11 10 11 14 18 25 26 21 23 26 32 32 33 31 31
4 7 12 15 15 11 10 10 6 6 10 2 5 3 2 4 4 5 5 6 6 5 5 5 6 6 7 7 10 10 10 12 15 19 22 24 27 23 19 25 31 33 35 35
1 4 17 13 12 12 11 11 11 13 11 9 6 3 2 3 4 4 5 5 5 5 5 5 6 7 9 8 8 10 10 12 14 19 21 23 26 31 31 26 30 35 36 38
8 8 12 16 16 12 14 15 13 13 10 8 6 5 4 2 4 6 7 7 7 7 8 7 7 8 10 11 12 12 13 14 15 17 19 20 24 28 32 35 37 37 39 37
9 17 16 9 15 14 12 10 8 9 8 7 6 5 4 10 9 7 8 9 10 10 9 9 11 12 12 13 13 14 15 16 18 19 20 20 23 24 27 31 35 38 39 39
12 12 8 8 11 11 7 7 6 7 6 4 3 4 6 8 10 9 9 9 10 10 9 9 9 12 14 14 14 16 17 18 19 19 20 22 22 23 23 27 31 36 40 41
18 13 10 11 15 11 10 9 6 4 2 2 3 4 5 7 8 9 8 10 11 12 11 10 9 7 8 11 12 14 16 16 17 17 17 19 22 24 25 27 27 31 35 39
19 16 14 12 13 14 11 8 5 5 5 4 4 4 4 4 5 7 8 7 7 8 8 7 7 7 8 8 9 10 11 12 13 14 15 16 20 23 25 27 29 29 31 32
16 20 19 16 15 13 10 9 8 4 5 6 4 4 3 3 3 2 4 7 5 3 5 7 7 8 9 10 11 11 13 14 16 17 18 19 20 20 21 23 24 26 28 31

GFSCGP_500_spd_111.txt.gz
Wind_Speed
44 44 41 47 50 52 54 54 54 54 54 56 53 51 52 54 53 54 48 49 49 49 50 51 53 54 55 56 56 56 57 55 55 54 54 54 52 50 52 51 46 41 43 46
59 53 52 52 53 55 56 57 56 56 55 57 57 53 51 54 53 53 54 54 53 54 54 56 57 59 60 61 62 62 63 63 62 57 55 54 54 52 51 53 51 47 44 48
56 56 56 55 56 58 59 59 57 58 58 56 57 54 51 52 56 55 57 57 58 60 62 64 65 67 69 69 70 71 71 71 70 65 60 58 56 57 54 58 52 47 43 48
55 56 55 57 58 58 60 57 58 58 57 56 55 59 47 53 58 59 61 62 64 67 69 73 76 78 80 80 79 80 81 80 77 72 66 59 56 59 50 54 51 42 48 51
52 53 53 54 55 58 59 58 59 57 55 53 53 62 44 58 59 59 62 65 71 76 78 80 83 88 85 79 72 69 78 84 79 75 71 65 55 59 53 53 49 50 50 48
47 48 50 53 54 53 54 53 51 49 51 51 54 63 49 56 62 63 68 73 75 76 73 64 57 46 44 44 46 49 65 80 76 73 73 67 59 59 54 49 47 52 45 48
47 49 50 50 49 51 51 47 45 46 54 53 58 59 61 62 68 68 71 68 57 45 38 42 31 30 28 25 26 31 41 55 62 65 65 67 62 59 49 46 50 51 45 51
48 49 50 49 49 49 47 45 50 55 57 58 62 61 65 66 54 28 26 28 31 31 35 24 20 21 20 17 18 21 25 37 45 52 56 59 59 52 44 45 50 50 47 49
50 48 45 43 43 42 47 51 53 56 59 61 57 50 52 35 14 12 16 17 23 27 27 24 16 16 15 19 16 20 26 32 37 41 42 46 50 42 43 44 47 49 51 49
44 41 40 43 45 49 50 51 49 50 40 29 18 20 18 12 14 14 16 16 17 15 13 12 16 18 19 22 24 21 26 29 35 36 38 41 40 42 43 45 45 49 48 43
33 35 41 47 49 49 43 37 31 27 8 4 7 4 13 12 16 22 17 18 20 13 16 12 9 13 14 16 22 21 31 34 35 34 35 40 42 44 46 47 49 48 40 37
39 41 44 40 31 24 15 14 12 9 8 5 8 5 15 12 12 13 19 21 19 13 10 13 9 3 7 3 10 10 20 28 27 35 40 42 43 48 51 50 49 43 39 39
38 32 21 10 5 8 10 11 11 12 10 4 8 4 10 6 12 14 7 17 11 9 14 13 17 4 11 4 2 10 18 30 29 32 34 38 41 46 49 51 50 45 44 42
16 6 8 11 10 7 9 12 12 11 5 6 9 6 9 8 11 15 16 4 1 11 13 9 13 8 4 2 3 9 10 20 23 31 29 36 41 47 47 48 46 47 45 43
5 4 6 9 9 12 11 13 12 7 10 5 2 3 5 9 13 8 16 18 11 16 14 15 11 7 3 3 5 4 4 16 7 18 22 23 31 38 41 44 45 42 40 41
8 9 12 11 13 7 14 12 4 12 8 4 4 2 2 2 3 8 11 13 13 14 14 8 7 4 5 2 7 4 4 6 20 17 24 33 26 25 34 38 42 47 44 43
7 13 14 13 9 10 6 1 6 10 7 3 3 3 3 4 5 7 10 12 12 9 7 9 6 3 2 3 5 8 5 5 8 9 5 23 32 29 28 31 36 42 40 45
8 12 8 15 13 13 8 4 9 11 4 4 5 6 6 4 5 7 7 8 7 6 6 4 4 5 4 3 2 4 6 1 8 10 12 24 15 27 36 35 33 32 28 26
8 2 14 16 15 15 9 4 4 7 8 6 7 6 5 6 5 5 5 5 4 5 5 5 5 4 3 2 0 3 3 6 9 8 8 9 6 16 22 18 19 26 24 32
11 9 8 15 17 15 10 7 8 6 12 7 8 6 6 7 5 3 4 5 5 5 4 5 4 5 4 4 3 2 4 5 7 9 12 11 12 14 15 15 15 16 24 28
11 11 11 15 9 13 11 10 10 13 12 10 9 8 7 6 4 1 2 3 4 4 4 4 5 6 6 7 6 5 5 6 8 11 13 12 13 16 18 23 24 29 29 21
5 10 14 18 16 14 15 14 14 12 12 12 8 7 5 4 2 1 1 3 4 4 4 5 6 8 8 8 9 9 10 10 9 9 12 14 15 17 20 23 26 31 34 37
6 12 17 17 17 15 13 12 13 12 11 9 7 5 3 0 3 4 5 6 5 5 5 5 5 6 8 8 7 8 9 11 11 10 11 12 14 15 16 20 24 26 31 35
14 11 11 16 19 13 11 10 12 11 9 8 6 1 1 1 3 4 4 6 8 8 7 6 6 5 6 6 7 8 8 8 10 10 10 11 13 14 16 17 18 21 23 26
18 14 12 13 16 12 11 12 10 11 8 7 4 2 1 1 1 1 3 4 3 2 3 4 3 3 4 5 6 7 9 10 11 12 12 14 15 15 17 18 19 20 21 23
15 18 16 14 15 15 14 12 10 10 7 4 2 4 4 5 4 2 2 2 1 1 1 1 1 0 2 4 6 8 11 13 15 17 19 21 23 24 25 26 27 28 28 28

GFSCGP_500_spd_114.txt.gz
Wind_Speed
47 48 49 52 55 55 54 53 52 52 55 55 53 52 58 58 59 56 53 52 52 51 52 54 54 54 56 56 56 57 57 59 57 56 55 53 52 54 53 52 51 48 46 44
53 52 56 59 62 63 65 66 64 64 62 60 58 48 59 58 58 58 56 51 51 51 52 54 54 55 56 57 58 59 59 60 60 59 59 57 54 54 54 51 51 52 48 47
55 59 59 61 63 64 63 63 64 65 64 63 66 57 62 66 63 57 55 51 51 52 53 55 56 58 59 59 60 61 63 63 64 64 65 63 61 59 56 51 49 51 47 47
53 53 55 58 60 61 61 62 60 61 62 61 64 65 59 61 66 64 55 53 53 55 56 57 59 61 62 64 65 67 69 71 73 74 73 72 67 64 58 54 51 54 47 48
56 52 54 55 55 57 56 55 55 56 57 60 55 62 51 58 61 53 51 53 52 53 54 56 59 61 65 68 71 73 75 78 78 80 82 81 77 71 67 64 56 52 52 49
50 49 51 50 51 50 50 49 51 53 53 54 50 54 48 51 50 51 50 50 53 55 58 62 64 68 74 77 79 82 84 85 87 87 83 85 84 80 78 72 63 60 59 51
45 47 46 47 50 50 49 48 49 50 50 49 47 44 42 44 47 49 51 55 58 62 67 69 69 65 50 43 47 46 48 53 56 65 78 87 89 86 84 79 69 68 63 54
45 48 46 45 49 51 49 46 46 48 45 38 48 45 48 47 49 53 58 59 59 57 48 43 35 31 31 34 34 32 34 33 35 41 54 70 76 79 82 80 74 71 63 53
49 50 48 48 49 47 48 44 43 43 44 47 48 45 48 50 51 47 41 32 30 31 31 31 27 31 28 26 26 25 25 25 24 24 34 44 51 59 64 69 72 68 57 49
48 48 46 45 43 38 36 40 40 43 43 44 38 38 36 34 29 25 20 21 22 21 26 26 27 27 29 29 23 22 19 19 17 14 19 30 42 46 50 58 59 52 50 49
41 34 33 33 34 38 40 40 40 38 32 23 18 18 15 19 15 16 20 19 17 17 17 13 7 14 18 23 23 22 24 20 16 18 23 27 32 36 38 37 38 43 49 48
27 29 34 36 38 36 31 25 24 22 12 16 15 14 11 10 13 13 17 17 12 9 15 11 11 18 14 4 3 13 22 21 23 20 21 28 30 35 37 38 41 44 45 46
28 31 32 27 20 14 13 11 12 15 14 9 12 8 10 3 8 7 16 11 9 5 8 7 9 16 4 7 12 3 9 19 18 17 24 28 32 36 37 38 43 43 47 44
24 19 15 14 16 9 11 12 12 9 12 12 10 6 4 6 10 13 8 4 5 2 7 8 5 8 7 3 9 4 3 15 17 16 19 28 35 38 38 40 43 46 45 44
12 4 5 8 12 14 15 12 15 17 16 10 6 5 6 10 14 10 10 11 11 9 12 16 9 7 9 6 8 12 8 6 13 20 17 22 32 36 40 43 46 48 49 46
8 7 7 10 11 14 11 14 15 18 15 7 5 6 3 8 3 6 10 10 11 12 11 12 9 7 6 10 6 7 5 2 6 15 14 18 17 30 33 37 39 42 46 48
10 11 15 15 12 11 13 14 11 12 10 7 5 4 6 2 5 5 6 9 11 7 9 10 4 3 2 3 6 7 6 3 3 14 10 7 24 21 28 28 29 33 38 45
14 14 14 11 12 13 10 5 10 14 9 7 6 7 8 5 3 3 4 5 6 7 5 5 5 4 4 2 2 5 5 1 6 6 15 4 23 27 20 29 27 34 31 34
14 7 5 14 15 12 8 2 5 9 9 7 7 7 6 5 4 3 4 4 4 4 4 4 4 3 3 4 1 3 4 6 4 8 5 8 11 6 24 30 27 36 41 49
11 9 7 15 14 16 12 8 7 7 12 10 10 8 6 4 4 4 3 3 4 4 4 3 3 4 4 3 3 4 5 6 7 6 8 9 8 15 12 7 11 30 27 31
15 16 13 13 16 17 14 12 8 10 12 12 10 8 7 5 4 2 1 3 4 3 4 5 5 4 4 4 3 3 5 6 7 9 10 11 12 12 6 12 13 16 20 18
14 16 15 15 16 12 13 11 11 12 16 12 12 10 8 7 6 3 1 1 1 3 4 5 7 6 6 6 6 4 4 4 6 7 8 8 9 13 16 12 16 19 21 23
14 14 17 19 19 16 14 14 14 15 13 13 12 8 6 3 3 3 2 2 1 1 2 2 3 4 5 5 5 6 7 7 7 6 6 7 7 7 10 12 16 20 23 26
16 9 16 16 18 17 17 16 19 15 15 13 9 6 4 2 4 4 3 2 3 2 2 1 2 2 2 4 5 5 6 7 7 7 7 8 9 10 11 11 12 14 17 20
17 14 14 21 20 20 17 15 15 16 14 13 9 6 3 2 2 3 3 3 3 2 3 3 2 2 1 1 2 3 5 7 9 11 13 14 16 18 19 20 19 20 21 21
12 16 15 17 25 22 18 16 15 16 14 12 9 6 5 7 6 4 4 4 5 5 6 5 5 5 3 3 4 7 9 11 14 17 19 21 22 23 24 26 28 30 30 31

GFSCGP_500_spd_117.txt.gz
Wind_Speed
49 49 49 48 50 53 53 53 54 55 60 63 62 62 58 60 56 56 57 56 56 56 53 53 53 55 56 55 55 57 58 57 56 55 55 55 57 58 57 54 48 50 49 47
51 56 49 51 55 57 58 61 60 61 64 67 68 65 72 69 66 64 61 62 61 57 55 54 54 55 56 58 60 59 60 62 63 63 61 60 58 59 58 56 55 52 52 49
48 47 53 55 54 58 60 63 64 65 65 66 68 68 66 62 67 67 67 60 59 59 59 58 58 57 57 58 60 60 62 63 64 66 65 64 63 62 62 57 55 54 52 49
50 48 51 52 57 58 58 58 61 64 65 66 63 71 63 55 48 57 65 63 60 57 58 59 59 58 58 58 59 60 62 65 67 67 66 65 65 64 62 61 57 56 52 49
50 55 58 56 55 56 57 58 57 57 59 63 54 51 51 33 35 46 54 52 50 51 52 52 55 59 57 60 61 61 62 65 67 69 69 69 69 69 68 66 63 59 56 55
53 54 53 54 54 51 51 51 50 50 53 55 47 40 42 37 43 50 46 46 49 47 46 45 47 50 53 56 59 60 63 65 69 72 75 76 76 75 75 73 71 68 66 59
48 52 53 50 43 43 44 46 47 49 37 48 36 35 30 42 42 42 43 46 47 48 46 48 50 51 54 57 61 64 66 70 75 78 81 81 82 84 85 82 81 77 72 68
49 47 43 39 40 42 42 47 50 50 39 33 28 40 33 49 44 41 44 45 47 49 48 49 51 54 56 55 53 50 51 51 51 52 55 60 64 71 80 85 88 86 80 76
50 46 42 41 46 48 46 49 48 50 48 45 41 37 43 45 42 45 47 47 46 43 40 40 39 33 27 34 34 33 34 33 35 35 39 42 46 50 57 72 92 93 90 80
46 44 44 46 49 47 45 43 42 39 37 33 26 19 28 37 31 34 35 36 32 27 31 30 29 30 29 32 34 36 30 29 32 28 29 33 39 46 50 60 69 75 86 88
49 47 45 49 47 41 37 31 35 35 37 34 25 20 22 27 27 25 26 24 28 32 30 27 25 22 22 25 22 25 29 35 36 33 24 25 26 32 38 43 45 48 56 66
42 45 44 40 32 33 36 33 36 32 24 18 19 23 21 25 21 21 22 21 24 20 21 17 16 18 15 19 14 15 21 25 29 27 20 19 16 14 24 35 39 40 42 45
38 33 28 28 30 29 26 23 19 16 15 19 23 18 14 18 14 13 14 19 14 15 10 7 14 10 11 13 13 8 8 12 10 17 19 19 18 17 20 28 35 36 39 43
25 24 23 20 23 21 19 16 14 13 12 12 17 19 15 13 13 12 14 4 6 3 4 5 7 9 5 5 10 11 12 9 12 18 20 17 19 21 25 27 29 31 33 35
21 18 14 12 13 17 21 17 15 15 16 17 18 18 14 10 12 9 5 4 6 10 4 10 12 5 5 7 12 9 9 15 7 3 25 13 20 19 24 29 29 33 35 36
17 13 12 9 10 11 12 15 18 17 18 17 19 13 10 8 3 1 5 4 8 6 5 10 10 5 5 6 6 8 7 10 15 13 9 14 13 17 23 26 30 32 35 37
14 13 10 11 12 13 13 15 21 18 19 15 9 7 6 5 2 2 2 3 5 7 8 8 5 3 1 2 5 8 7 4 8 10 6 8 9 19 22 27 29 32 35 38
14 14 14 16 15 14 15 15 13 11 9 9 8 7 8 6 2 1 1 1 1 2 3 4 3 3 3 3 3 6 7 11 11 13 3 1 1 4 15 28 37 34 37 35
16 17 16 11 10 14 12 7 2 2 4 7 8 7 6 3 3 2 1 1 2 3 3 4 4 3 3 3 3 4 6 9 12 13 9 4 5 2 3 11 43 34 52 39
17 17 14 6 10 13 11 10 6 7 7 11 9 6 5 4 4 3 2 2 3 3 4 4 4 4 4 5 5 6 5 7 10 11 12 13 10 7 8 4 16 11 17 37
20 19 16 12 11 15 14 13 10 10 11 10 10 7 6 5 4 3 2 2 1 2 3 3 4 5 5 6 6 7 7 7 7 8 9 9 13 15 13 6 11 7 10 12
22 21 18 20 14 17 17 16 13 11 10 12 10 8 6 5 4 4 1 2 2 3 5 5 5 4 5 5 5 5 6 7 7 6 6 5 6 8 12 17 18 15 13 16
22 21 21 20 18 18 16 14 12 13 11 14 12 10 8 6 5 5 2 1 3 4 4 4 5 5 5 5 6 5 5 5 6 7 7 7 7 7 8 7 9 13 16 18
21 21 21 25 22 23 20 15 13 15 17 14 13 11 8 6 6 5 4 3 0 1 2 4 3 3 4 4 4 5 5 5 6 7 8 10 10 10 10 10 12 13 14 16
19 23 21 21 20 22 21 18 17 19 17 15 14 12 10 8 5 3 2 2 2 3 4 5 5 5 5 5 5 6 7 9 11 12 14 16 17 18 19 20 20 21 22 22
18 19 23 15 21 21 20 20 23 19 16 16 15 12 9 7 6 5 4 5 5 5 7 9 9 9 8 7 8 8 11 12 14 17 19 21 22 24 25 25 25 25 26 27

GFSCGP_500_spd_120.txt.gz
Wind_Speed
53 53 53 55 52 54 55 53 52 46 49 53 58 61 62 64 62 63 62 64 68 69 66 59 53 53 54 53 54 54 55 56 54 54 54 54 55 56 56 56 54 54 53 51
55 54 53 55 52 51 50 51 51 51 55 58 59 65 60 66 64 65 68 69 70 72 73 65 65 60 56 55 54 54 56 57 58 58 58 58 56 56 56 56 57 58 57 54
56 56 53 52 51 51 48 50 52 56 58 61 64 67 63 60 61 48 50 58 65 63 63 57 53 57 58 56 56 55 55 57 58 59 60 63 62 61 60 57 55 55 58 56
54 46 45 46 50 50 53 54 56 58 61 63 60 68 62 55 56 46 54 59 60 53 49 47 48 51 53 57 58 58 57 56 60 63 63 64 65 65 64 65 64 62 59 59
45 47 48 50 50 50 52 53 57 58 58 59 50 53 54 45 46 47 52 57 44 43 44 45 46 47 48 50 52 55 58 60 60 62 65 66 66 67 66 67 67 65 64 61
49 53 56 54 55 51 48 50 55 56 54 51 41 44 46 38 43 45 48 46 43 43 49 51 45 42 44 47 49 51 51 51 54 63 64 64 67 68 68 68 69 66 64 61
49 50 51 50 49 46 48 48 44 43 43 45 39 27 37 36 42 45 44 44 45 47 48 47 46 44 42 44 47 49 51 53 55 57 61 63 63 65 69 71 72 70 70 66
44 41 42 46 49 46 43 40 41 45 45 48 46 46 37 41 54 48 46 49 49 49 46 45 45 45 45 47 47 49 51 55 58 61 66 69 72 73 76 76 77 76 76 73
48 46 47 44 45 44 41 41 44 49 48 50 47 40 35 44 40 37 39 40 41 43 42 41 42 42 39 40 41 40 41 42 41 42 42 44 46 52 59 64 73 81 85 83
42 45 42 43 45 43 44 44 47 47 46 43 30 14 26 34 38 40 42 39 39 37 32 33 33 30 30 29 29 30 32 36 36 36 32 28 29 31 37 45 51 58 68 82
40 41 41 42 43 44 46 47 40 38 38 39 39 33 29 28 38 42 47 40 33 32 33 32 31 27 26 23 21 24 27 27 25 31 34 33 33 36 38 41 44 52 58 62
40 42 39 42 43 44 36 28 34 36 33 33 36 29 19 25 38 37 29 26 28 27 28 25 17 17 14 17 17 20 20 18 21 24 27 31 35 39 37 34 40 45 49 58
42 42 43 40 35 32 33 31 29 29 29 19 20 26 22 25 23 23 24 25 21 20 18 12 7 5 8 10 12 9 8 12 11 15 16 17 17 20 25 26 22 24 32 39
41 43 37 27 28 29 31 21 20 20 21 16 20 25 24 22 21 20 19 12 10 8 11 13 7 6 4 3 10 8 13 13 15 12 17 24 21 18 18 14 8 10 17 23
39 29 26 21 22 25 23 26 26 22 16 19 17 23 20 22 21 17 9 4 7 9 11 13 2 6 2 2 6 7 8 7 15 17 13 18 22 20 14 10 13 11 14 22
28 22 21 19 16 15 16 17 19 19 20 20 20 24 21 20 14 5 3 6 6 5 9 10 10 6 4 4 7 9 10 11 11 16 18 10 15 21 15 13 11 10 9 3
23 21 19 13 15 15 15 13 17 19 19 20 23 19 10 9 6 2 4 4 3 5 6 9 6 6 6 6 7 9 11 14 13 15 12 12 7 5 18 10 12 15 18 19
21 18 17 12 15 17 15 12 15 19 17 15 10 8 9 7 7 2 4 4 4 5 4 4 7 5 5 6 5 9 12 14 15 17 14 10 12 6 6 13 20 17 16 21
19 17 15 13 13 14 10 12 13 9 5 5 8 9 10 7 4 3 4 4 3 1 2 2 4 5 6 5 6 8 10 11 13 17 17 18 11 3 14 11 11 27 32 25
18 18 15 11 9 11 10 13 13 11 8 6 7 10 4 2 2 3 4 3 1 1 1 2 4 6 4 7 7 7 9 13 15 14 14 14 17 13 5 1 9 13 11 11
19 20 16 14 14 15 14 14 14 12 11 9 9 8 4 4 3 1 1 1 2 3 4 6 5 6 9 8 9 10 10 11 9 10 12 13 14 16 18 17 14 10 8 4
17 21 19 20 19 18 15 15 14 14 13 10 8 6 5 4 3 2 2 2 4 5 4 4 6 7 7 7 8 10 11 9 11 12 12 13 14 15 16 16 17 18 18 16
20 18 19 17 20 17 17 16 14 13 12 10 9 7 6 6 4 3 3 3 5 6 6 6 7 8 6 7 8 7 8 9 10 10 11 12 13 13 14 15 15 15 15 17
19 22 26 25 23 22 20 19 15 13 12 12 12 9 7 6 5 5 4 2 4 5 5 6 6 6 6 6 6 7 9 10 12 13 14 15 16 17 18 18 18 19 19 20
19 23 23 23 23 24 24 23 21 15 15 15 13 12 11 9 8 6 4 2 2 1 3 4 6 7 7 8 8 9 8 9 12 14 15 16 18 19 21 23 24 24 25 25
24 25 23 22 24 21 21 23 22 18 17 18 16 15 14 12 9 7 5 4 3 3 5 6 7 9 9 8 9 10 11 12 12 13 16 19 23 25 27 28 26 26 27 30

GFSCGP_500_spd_123.txt.gz
Wind_Speed
54 54 52 49 51 53 53 53 51 47 49 46 46 48 49 53 55 58 50 45 58 66 74 75 71 55 51 57 60 60 57 54 55 56 54 54 56 55 55 55 54 53 52 48
55 57 51 48 50 52 53 53 50 46 47 49 50 49 48 49 50 48 55 58 63 69 72 72 70 68 56 53 56 57 61 60 56 57 59 57 56 56 57 57 55 55 55 55
53 49 48 48 52 54 51 51 46 49 52 53 55 54 56 50 46 51 55 61 64 65 63 60 57 57 54 53 53 56 57 57 58 59 58 57 57 57 59 59 59 58 59 58
47 44 46 47 47 45 49 47 51 54 54 56 55 60 53 47 48 53 53 53 54 53 53 57 54 47 49 49 48 51 56 57 57 57 58 58 57 55 58 60 60 61 60 61
47 47 48 48 47 47 50 54 54 55 56 56 51 53 50 46 50 51 49 48 46 44 46 45 50 52 53 54 52 52 51 54 58 58 58 57 58 58 58 61 62 63 64 64
43 43 47 48 49 52 54 51 50 46 48 53 44 42 44 38 42 44 42 44 44 46 45 45 46 49 52 54 53 52 51 50 52 54 56 56 57 59 60 63 64 66 66 67
42 43 44 46 49 50 44 45 47 48 44 45 34 39 37 39 42 44 47 46 48 49 50 50 51 56 55 51 48 46 48 47 49 50 52 53 55 57 59 63 66 67 68 67
43 41 40 46 48 47 49 43 42 45 41 39 36 45 45 43 43 47 50 51 51 53 52 54 52 48 50 50 50 49 46 47 49 49 51 54 56 56 56 57 62 66 67 67
44 41 41 38 36 40 44 43 42 45 44 48 44 50 47 45 38 30 31 34 39 39 37 40 43 44 42 40 41 42 42 44 46 49 51 53 57 61 65 67 67 68 69 70
39 41 38 38 41 40 40 41 41 43 46 47 49 42 31 30 28 29 32 38 42 45 43 42 40 35 34 35 30 29 29 29 30 32 34 34 37 36 35 39 45 55 69 78
38 37 37 38 38 39 42 42 45 44 43 42 44 40 33 35 39 43 45 44 40 28 34 33 33 35 26 21 21 20 23 29 30 25 24 24 25 26 25 27 31 36 39 48
37 38 40 40 38 39 42 45 41 42 41 37 36 38 33 29 29 29 30 30 36 42 35 28 26 19 13 13 11 13 10 8 11 17 19 20 23 23 22 29 36 43 50 46
37 39 43 41 40 38 40 39 37 33 35 32 28 32 26 23 23 25 26 28 24 24 20 14 16 12 12 8 8 10 11 8 8 9 13 16 15 10 12 19 24 30 32 40
37 41 41 40 38 38 32 29 31 33 28 24 27 27 21 22 24 25 24 23 23 15 12 12 9 8 12 10 12 10 15 13 13 14 6 10 15 20 20 14 14 18 17 16
40 42 41 39 32 30 30 28 26 24 26 31 23 22 22 21 19 20 23 20 14 9 6 9 11 9 11 9 11 14 15 15 12 17 17 13 10 13 17 14 16 11 10 10
40 39 35 27 29 27 26 21 20 19 21 20 21 23 20 22 21 19 12 11 6 6 3 6 10 6 10 11 11 9 11 14 14 13 17 15 6 9 14 16 12 8 5 8
37 32 29 19 28 27 16 16 18 18 21 23 23 21 20 23 14 9 8 5 4 2 2 5 6 6 7 8 10 11 10 12 14 16 10 16 9 6 6 14 15 10 15 6
29 26 24 19 27 21 15 15 14 14 15 18 17 15 11 10 10 10 7 4 3 3 5 2 4 6 7 6 7 8 9 11 15 18 19 17 11 12 8 4 13 13 11 11
22 24 23 19 22 17 11 9 9 8 13 12 7 7 8 10 11 10 7 6 4 3 4 2 4 6 5 6 8 8 12 16 18 17 17 18 17 12 14 13 7 7 16 16
21 23 22 18 21 14 9 3 7 9 12 8 6 7 8 7 8 6 4 3 3 2 1 3 5 5 5 9 10 12 16 19 15 15 16 19 21 23 23 13 12 13 8 7
17 20 18 20 21 14 11 14 12 12 12 11 8 5 8 5 5 4 5 4 5 4 5 7 8 7 10 10 11 14 15 15 12 14 17 19 19 19 20 23 24 21 20 14
19 18 16 22 24 15 11 14 13 12 13 10 8 6 8 6 5 5 5 5 6 6 8 9 9 8 8 8 9 10 11 10 11 14 15 16 16 17 18 18 19 18 18 18
21 20 18 19 16 15 15 13 15 13 14 9 9 7 7 8 8 6 6 7 8 10 10 9 8 7 6 6 6 7 7 7 9 11 12 14 16 17 19 20 21 21 22 21
26 24 22 22 19 20 19 18 17 16 14 11 10 9 9 9 9 8 8 8 10 11 10 8 6 5 3 5 5 6 7 10 12 14 15 18 20 20 21 21 22 24 24 25
25 26 25 21 21 27 26 20 20 19 19 14 13 12 13 12 11 10 9 9 9 9 7 4 1 2 4 6 6 6 8 9 10 11 13 15 16 16 18 20 20 21 22 22
25 28 28 24 24 22 24 23 22 24 22 18 16 16 15 13 11 11 11 10 8 7 5 4 3 4 6 8 9 10 12 13 13 13 13 15 17 19 21 22 23 22 24 28

GFSCGP_500_spd_126.txt.gz
Wind_Speed
43 48 43 48 50 50 51 52 52 48 48 50 48 49 50 50 51 50 51 56 60 62 63 63 63 64 65 64 52 48 49 52 56 63 65 64 55 61 62 62 61 61 54 53
50 51 49 49 52 55 53 50 47 49 49 51 48 44 44 44 43 47 52 56 60 63 65 65 63 62 60 55 54 54 52 53 56 57 68 69 65 59 64 65 66 65 63 56
49 50 52 51 49 48 46 48 50 52 49 46 48 47 46 49 52 58 62 64 65 63 59 55 52 51 49 50 52 53 56 56 56 60 64 69 68 66 63 67 68 67 65 63
50 47 48 47 47 48 51 50 50 49 49 49 51 53 46 53 58 61 60 59 56 53 49 48 47 47 48 49 52 53 55 57 55 55 62 68 67 68 68 63 68 67 66 65
45 44 44 46 45 48 48 47 47 48 49 51 51 53 51 60 62 61 58 50 46 45 45 45 45 46 47 49 51 54 56 58 61 62 60 59 62 65 67 66 63 66 67 67
40 43 44 42 44 45 45 45 46 48 49 53 46 52 56 57 55 47 42 42 43 44 45 48 50 50 49 51 52 55 58 60 61 61 59 59 56 58 63 64 66 66 66 65
43 41 39 38 39 41 43 43 46 49 49 49 45 48 52 49 43 42 43 47 48 49 49 51 54 54 56 57 57 59 59 57 54 54 55 54 55 53 55 60 65 68 67 69
41 38 36 36 40 42 43 41 40 43 46 47 45 48 49 45 44 45 47 47 46 49 52 55 57 55 53 49 48 51 53 53 54 52 50 50 51 51 50 52 57 64 68 70
37 36 36 34 36 37 37 39 41 41 44 46 44 45 46 45 45 44 42 40 41 42 42 43 44 45 45 43 40 41 43 44 44 44 47 49 49 50 50 49 49 51 56 62
36 37 35 36 34 30 33 37 39 40 44 47 44 50 51 45 42 41 41 39 40 41 44 49 47 38 34 33 35 30 31 31 29 26 26 31 39 45 48 49 51 52 55 56
31 33 36 33 30 31 36 40 43 45 48 48 48 49 44 39 40 38 40 41 42 41 37 36 33 25 29 30 23 21 19 19 26 26 25 24 25 28 30 30 31 35 42 49
32 34 36 34 32 36 37 41 43 46 47 46 47 43 32 34 32 34 33 32 30 30 31 22 24 21 23 19 19 10 18 16 13 13 19 16 12 14 17 19 20 24 27 32
33 36 38 37 37 37 40 41 41 43 45 43 37 34 29 29 24 26 26 27 28 28 22 22 17 16 7 9 10 14 14 18 15 16 13 8 7 8 11 12 11 22 28 33
37 39 36 39 39 40 41 42 39 38 41 32 33 31 28 26 20 22 24 23 23 22 22 13 10 7 7 7 12 9 12 16 15 14 11 5 1 9 12 18 10 10 16 16
38 35 37 38 38 40 42 40 31 34 30 35 23 24 22 20 22 23 22 21 23 16 14 11 6 8 6 4 8 7 11 15 15 15 16 13 6 8 17 12 15 12 9 13
35 35 37 36 38 40 38 28 29 28 24 25 18 16 20 23 23 22 23 16 11 10 8 7 4 8 5 6 8 6 10 12 16 19 20 15 9 2 4 7 10 5 12 13
35 36 37 40 35 38 27 24 28 22 22 20 18 22 25 24 22 24 15 11 8 4 3 4 5 4 4 6 7 7 6 8 17 20 20 16 17 12 6 8 8 16 14 13
31 34 39 38 34 27 21 21 21 20 16 15 18 20 19 17 16 14 11 8 7 5 2 4 4 5 2 2 3 6 11 18 20 21 21 19 14 17 17 14 8 8 12 17
28 35 38 31 26 24 18 17 16 12 11 13 14 13 10 10 12 11 10 7 6 5 4 5 4 2 5 7 9 14 18 20 22 22 24 26 26 27 26 19 18 16 15 7
30 33 29 25 24 21 14 13 10 10 11 13 13 10 11 12 11 11 9 6 5 4 6 6 6 9 11 12 13 14 17 17 17 17 19 21 23 24 24 25 27 29 29 24
30 22 19 22 25 19 14 14 16 15 14 12 12 11 9 10 10 9 8 6 5 5 6 8 11 12 11 12 12 12 13 14 10 11 12 15 17 17 17 18 19 19 21 23
19 19 18 20 22 17 14 15 15 17 15 13 12 11 10 11 10 9 8 8 8 9 11 12 13 11 9 9 8 7 7 7 6 8 9 11 12 13 16 17 18 19 18 18
21 20 20 21 22 20 17 18 15 16 15 15 12 11 13 13 12 11 11 9 10 12 13 14 13 10 8 6 5 3 2 2 4 6 8 9 12 15 17 18 20 21 22 22
17 23 27 27 21 22 20 19 20 18 16 14 13 12 14 13 14 14 13 12 13 14 14 14 13 11 8 6 4 3 3 5 8 11 13 14 16 17 17 18 18 19 21 22
28 29 28 30 29 29 24 25 26 22 19 17 17 15 15 14 14 15 14 15 17 17 17 15 13 11 9 8 7 6 7 9 11 13 14 15 16 18 19 20 21 21 21 22
28 28 31 31 32 28 25 23 24 28 24 22 21 19 18 18 17 17 17 17 19 19 17 16 14 13 11 10 10 10 11 12 14 15 17 19 21 21 22 22 23 25 26 27

GFSCGP_500_spd_129.txt.gz
Wind_Speed
41 43 37 43 42 45 48 49 52 49 51 50 46 47 49 53 55 55 55 57 59 61 62 64 66 66 66 67 68 67 68 67 65 65 62 60 60 65 64 65 65 67 69 68
40 44 46 48 50 51 50 51 51 51 48 45 43 46 50 54 54 54 56 56 57 60 62 63 64 65 68 70 71 71 70 69 68 64 61 61 60 62 65 70 67 70 71 72
40 41 43 46 50 50 50 50 50 48 47 48 50 53 54 52 53 54 56 58 58 59 59 62 64 66 67 69 70 70 68 61 57 58 58 59 61 62 67 73 73 72 74 76
46 43 45 49 48 48 48 47 48 49 49 50 50 52 51 54 54 56 56 56 56 58 60 62 63 62 61 59 57 56 54 55 56 61 65 67 64 63 62 67 71 73 74 77
45 45 44 44 43 45 45 47 50 51 51 50 51 51 49 55 56 57 58 58 56 55 53 52 51 50 50 51 51 53 56 57 58 61 64 65 66 65 64 59 63 70 71 78
43 46 48 46 45 46 48 50 49 48 49 49 47 52 52 56 57 56 53 50 49 50 50 50 50 51 53 54 55 57 59 60 61 61 63 65 65 64 62 62 64 66 67 70
44 45 44 43 43 42 44 44 48 49 49 50 53 58 58 55 55 53 49 48 50 52 53 52 53 56 58 59 58 56 55 55 53 53 55 54 52 51 52 58 60 60 62 60
46 44 42 41 40 40 41 42 44 47 50 51 51 57 52 48 45 41 45 49 50 50 50 52 52 50 50 48 45 47 49 50 52 53 55 55 54 54 49 48 49 50 51 54
43 41 37 35 36 38 38 39 39 41 45 48 50 52 50 44 42 45 46 45 45 45 47 46 46 46 45 46 44 42 41 42 42 42 45 48 49 50 47 43 44 43 44 44
41 40 38 35 35 34 33 36 39 39 41 47 49 50 49 45 46 45 46 45 44 43 41 42 41 40 37 34 32 32 31 26 27 30 34 33 29 28 29 35 41 41 38 39
39 36 36 36 35 34 33 36 38 39 41 46 49 47 49 47 42 43 40 39 39 40 39 35 30 29 26 25 24 19 17 17 24 31 29 25 22 20 21 23 27 32 36 38
34 33 36 36 38 37 34 35 38 41 44 46 49 40 44 37 37 35 37 36 34 34 32 28 24 24 21 19 16 10 14 19 25 27 27 27 17 16 13 13 13 14 18 20
32 36 37 39 38 36 37 37 38 42 45 43 50 44 41 32 31 30 30 29 28 28 26 21 20 17 17 15 9 12 12 20 24 27 22 14 9 10 9 8 9 9 13 17
35 36 36 40 39 39 41 40 40 44 47 45 45 34 31 30 26 25 24 25 26 26 23 22 17 13 13 7 6 9 15 18 20 18 17 8 3 3 6 9 7 1 6 14
37 38 39 40 41 43 41 40 41 45 43 45 32 31 24 21 20 21 23 24 23 25 19 14 12 11 5 5 3 6 11 15 16 18 18 10 3 1 5 5 10 9 4 5
40 41 41 42 42 43 42 40 42 43 37 36 31 19 22 22 22 22 22 21 22 16 13 11 10 8 2 5 8 7 6 9 9 12 19 21 19 12 8 2 4 5 8 9
34 40 41 38 42 42 40 37 39 33 28 25 24 21 21 23 22 21 22 21 15 11 10 9 9 6 2 4 4 2 8 13 17 21 18 20 20 19 17 15 12 11 9 9
34 35 35 39 40 40 37 32 27 28 21 24 17 16 19 19 16 15 17 14 13 10 10 9 11 7 9 8 7 10 12 17 19 23 26 25 27 27 22 23 22 14 13 8
32 33 36 40 38 39 30 24 21 19 17 18 16 18 17 17 15 15 15 12 11 9 11 10 8 8 10 9 12 11 12 15 17 20 20 21 23 24 25 24 24 25 24 26
31 31 35 36 37 38 20 20 16 15 15 17 17 18 18 17 16 16 11 11 11 11 11 11 12 13 12 13 11 9 8 12 15 14 14 16 18 20 20 21 21 22 23 23
30 32 33 33 33 23 16 16 18 19 19 18 17 16 17 16 14 12 11 12 10 8 9 12 14 14 14 12 10 8 5 8 10 8 9 11 13 15 15 15 17 19 20 22
28 32 31 29 24 16 14 18 22 20 21 21 19 18 16 16 13 13 12 11 9 7 12 14 15 15 14 12 9 6 3 4 4 4 7 9 11 14 15 17 18 19 20 21
33 32 30 29 22 17 16 17 24 24 22 21 20 20 17 17 15 15 14 12 11 11 13 15 17 16 14 12 9 7 5 3 3 6 8 10 10 12 15 18 21 23 24 24
35 36 30 28 19 20 20 19 20 26 24 21 20 19 18 16 16 17 16 15 15 14 15 19 18 17 15 13 12 10 9 7 7 9 11 13 14 16 19 20 20 21 23 25
34 31 24 23 25 28 26 27 26 25 26 26 23 21 21 18 18 19 18 17 17 17 19 20 20 18 17 17 15 14 13 11 11 11 14 14 15 18 19 21 23 24 25 26
28 23 28 33 32 32 30 30 29 25 25 31 29 25 23 22 20 20 20 21 21 21 21 22 21 20 20 19 18 17 16 14 14 15 17 17 19 22 24 25 27 29 32 34

GFSCGP_500_spd_132.txt.gz
Wind_Speed
33 32 35 36 34 37 39 40 43 44 48 47 45 48 50 51 51 50 51 53 56 58 60 61 60 60 62 64 66 67 69 71 71 71 70 71 71 71 69 69 69 72 72 72
31 30 33 35 37 39 40 43 44 46 49 51 50 50 50 51 51 53 55 56 58 59 60 62 63 65 66 68 69 71 72 74 75 75 76 77 73 71 73 73 72 69 69 75
36 35 35 39 42 42 44 46 47 49 50 51 51 50 49 50 52 55 55 56 56 58 60 61 63 65 67 69 71 74 75 76 76 75 73 72 71 67 63 65 67 70 72 74
43 38 39 44 43 43 45 45 45 45 46 47 49 52 49 50 54 54 55 54 56 57 59 61 63 66 67 68 69 68 66 65 64 64 64 65 64 62 60 61 63 66 69 72
44 45 45 42 42 45 45 45 46 47 49 51 54 55 51 54 54 54 54 58 59 59 60 61 64 64 63 63 62 58 57 57 57 59 61 63 64 65 62 63 64 68 68 74
44 44 43 42 45 45 45 47 47 48 50 53 50 52 51 53 55 55 56 56 57 59 60 60 57 57 57 59 58 56 58 60 61 63 63 64 65 66 67 69 72 69 69 68
42 41 43 44 45 45 45 46 49 51 51 52 52 56 54 53 55 56 57 54 55 56 55 53 54 54 53 52 53 56 58 55 54 52 49 50 51 51 54 56 59 59 58 60
44 43 43 43 45 45 45 45 47 50 52 52 53 57 54 55 57 56 53 50 51 52 52 52 50 49 50 49 47 45 43 44 46 45 44 45 47 49 52 57 59 57 54 57
45 47 46 45 42 38 38 40 42 45 48 51 52 53 54 54 53 52 49 49 50 49 48 48 46 42 41 42 42 40 39 39 39 40 36 34 34 41 38 40 36 46 55 49
47 46 43 40 39 38 37 40 41 42 45 49 49 51 53 51 49 47 45 48 49 49 45 43 41 39 36 36 34 31 29 28 27 26 29 35 37 38 34 31 28 27 29 35
43 40 40 40 38 37 39 39 39 40 43 46 50 50 47 48 48 48 47 49 47 43 42 40 37 34 30 25 22 19 16 18 21 27 30 33 40 31 21 19 20 22 22 23
36 38 38 36 36 39 37 37 39 41 42 44 50 47 43 46 47 42 43 43 43 42 39 33 31 30 22 19 17 11 14 16 23 31 35 32 27 15 12 14 13 11 11 14
35 39 39 37 36 37 40 40 39 41 43 42 47 47 45 43 42 38 39 37 36 34 29 26 26 22 19 15 13 12 11 17 23 25 28 23 4 12 10 11 9 11 7 3
36 37 37 36 36 39 39 39 41 43 45 43 47 45 41 36 36 35 35 30 26 25 24 25 25 17 12 13 13 9 9 14 18 21 17 14 4 4 5 6 7 10 10 7
38 37 35 39 39 42 40 41 42 44 42 47 43 50 27 30 33 30 25 23 24 24 24 23 16 11 11 8 7 8 10 10 10 8 12 16 17 12 11 10 8 5 7 8
34 35 39 40 42 43 41 40 42 42 42 45 48 39 26 29 29 25 26 28 26 24 22 17 13 10 10 5 10 6 2 4 5 5 19 23 23 22 21 19 18 17 12 7
36 37 40 47 47 41 38 39 40 40 42 47 41 28 24 22 21 25 26 23 22 20 17 13 12 11 10 10 10 6 10 15 16 18 21 26 28 30 31 29 27 26 18 13
37 42 37 34 32 36 38 39 36 38 41 37 29 20 18 19 20 20 18 16 18 16 15 14 14 13 11 12 10 11 11 10 12 15 18 19 21 23 24 26 26 26 25 25
38 31 32 33 36 39 36 33 38 42 30 31 21 17 17 20 21 20 19 18 18 15 16 14 14 12 9 13 15 13 8 7 9 12 14 16 17 19 21 22 22 22 24 24
32 31 33 34 38 41 34 34 37 37 23 23 18 17 18 20 20 20 19 16 13 14 16 16 16 13 16 14 14 10 7 6 6 9 10 11 14 16 17 18 18 19 20 21
32 33 34 35 38 39 31 34 33 27 19 21 19 19 20 22 20 19 17 13 13 14 14 15 15 13 16 16 13 11 8 5 3 5 4 7 8 9 11 12 14 16 18 19
32 33 33 33 33 35 31 29 25 23 23 22 19 20 21 21 20 19 18 14 13 12 13 13 13 18 19 16 14 12 10 7 4 1 4 8 10 10 11 12 14 16 17 20
33 30 33 33 35 39 34 28 21 21 20 23 23 21 22 21 21 19 17 16 14 12 11 12 17 22 18 17 16 14 11 9 8 7 7 10 11 11 13 14 17 20 22 23
28 31 35 37 36 36 29 23 23 20 21 22 22 23 23 21 20 20 17 17 16 15 13 17 22 20 20 19 17 16 14 13 13 12 12 12 14 14 13 16 19 21 22 24
30 30 35 36 31 28 24 25 25 25 25 25 24 24 26 24 22 21 20 19 19 17 18 20 23 23 22 21 19 18 17 16 16 16 16 17 18 17 18 20 23 24 25 27
27 35 38 34 28 28 28 29 31 30 30 28 26 25 28 29 25 23 21 21 21 20 21 22 24 23 23 23 21 21 21 21 20 20 21 22 22 22 24 25 25 26 28 28

GFSCGP_500_spd_135.txt.gz
Wind_Speed
33 34 31 31 31 30 29 29 30 32 35 35 36 38 41 44 47 48 50 52 53 55 56 57 60 62 63 63 63 63 62 63 65 66 68 70 72 73 73 71 70 70 70 71
35 35 31 29 30 30 32 34 35 38 39 40 40 42 44 47 49 50 50 51 53 55 58 60 62 63 64 65 65 67 68 69 70 70 71 71 72 74 76 78 80 79 78 78
33 30 31 32 33 34 37 39 42 44 44 44 45 44 47 48 49 50 51 53 55 57 59 60 62 62 63 64 65 67 70 72 74 75 77 78 78 78 75 74 74 76 78 79
34 32 35 36 37 39 43 44 46 46 46 48 48 50 49 50 52 53 54 56 57 57 57 58 59 62 64 65 67 69 71 72 72 72 72 73 73 73 72 67 62 61 63 66
36 38 38 38 40 44 46 46 45 47 49 50 53 53 49 53 53 53 55 56 57 57 58 60 62 65 68 68 68 68 67 67 66 65 63 58 56 57 59 61 61 62 60 58
36 39 40 42 45 46 44 45 47 49 50 52 52 53 50 54 54 56 56 56 55 58 60 64 66 66 66 66 65 64 62 62 61 56 57 57 56 54 55 57 58 60 63 65
39 41 42 43 44 42 44 46 47 49 51 53 53 56 55 52 54 54 55 55 57 59 62 64 63 62 62 61 58 58 57 57 57 54 48 43 45 48 49 50 51 52 53 58
38 40 41 41 42 43 44 45 46 48 51 51 52 55 52 51 51 54 55 55 56 57 60 59 55 52 52 52 51 49 47 46 45 42 41 44 46 46 40 36 36 40 44 46
39 40 39 40 41 41 41 41 41 44 47 50 51 51 50 48 52 51 51 52 54 55 56 54 50 49 46 44 43 42 41 40 38 37 36 38 36 33 39 38 45 46 41 37
39 40 40 39 39 39 37 38 40 41 45 48 48 47 46 46 45 47 48 51 52 52 52 50 48 45 44 44 41 35 32 29 28 27 27 28 29 35 37 44 27 24 27 26
40 39 40 39 37 35 37 38 38 40 41 42 45 44 39 43 44 44 47 49 49 50 47 44 43 43 39 34 30 24 22 20 22 23 30 32 31 33 22 14 13 16 19 20
34 35 34 34 36 38 34 35 38 39 39 42 45 46 37 41 43 43 46 47 49 45 42 38 35 31 27 25 21 17 16 19 20 26 27 26 28 15 14 12 10 12 14 12
29 33 32 36 38 37 35 37 39 40 41 40 45 44 37 40 40 45 49 48 43 38 29 27 25 27 27 17 14 11 11 14 18 19 19 19 16 12 12 7 8 12 12 12
32 34 35 36 38 38 37 38 39 40 42 42 41 42 38 39 43 47 45 39 35 27 24 26 27 26 20 14 9 5 9 9 9 9 9 9 5 5 5 6 6 5 7 7
36 37 38 41 40 40 37 36 37 41 41 47 36 45 40 43 43 38 35 33 29 26 29 28 25 19 16 14 9 11 15 8 8 8 14 17 17 17 20 18 17 15 12 6
38 39 38 36 36 37 34 34 39 43 44 43 44 44 42 42 38 33 30 24 26 27 23 23 19 15 13 12 11 11 8 9 14 19 23 25 28 32 32 32 33 29 24 19
38 37 36 37 37 38 37 34 37 37 38 42 43 41 39 36 29 27 23 23 23 21 18 18 15 12 12 12 13 7 9 11 13 15 15 17 19 22 23 25 28 28 27 28
38 38 40 41 40 39 38 34 33 36 37 39 40 37 37 29 24 21 22 22 21 20 19 16 14 13 13 14 15 12 7 7 6 8 11 13 16 17 19 21 22 23 23 25
36 39 41 38 36 33 27 31 33 34 34 37 37 36 29 24 20 18 21 20 19 19 17 14 14 15 15 15 16 17 10 6 5 5 8 10 11 13 15 17 17 18 20 22
36 34 34 29 33 36 33 33 34 34 34 30 33 29 23 20 19 19 21 20 17 15 13 14 16 17 16 16 16 17 10 9 7 3 4 5 7 9 11 12 13 14 15 17
33 27 27 31 35 35 30 31 32 33 35 26 25 25 25 23 22 22 21 19 15 14 15 16 17 17 16 16 22 15 13 11 9 7 3 2 5 7 8 10 10 11 12 13
33 34 30 30 34 34 31 31 31 35 35 26 22 22 22 21 20 21 21 18 15 14 14 16 16 15 12 24 22 16 15 13 12 11 9 7 8 9 9 10 10 9 10 12
32 31 33 33 31 31 32 32 35 37 31 25 20 18 19 22 22 21 21 18 15 14 14 15 16 16 17 26 21 18 16 15 15 14 13 12 13 13 14 15 14 14 15 16
30 32 30 33 28 29 33 34 36 33 28 24 22 22 20 21 23 23 21 19 17 15 15 16 16 15 23 26 20 20 18 18 18 17 17 16 16 17 19 19 19 20 21 21
26 29 31 31 27 33 35 37 33 28 25 25 25 26 25 23 23 25 24 21 19 18 17 17 17 17 27 26 22 21 20 19 19 20 20 20 21 22 23 24 23 24 24 23
27 28 32 30 29 34 37 35 28 25 27 28 30 30 29 27 26 25 27 26 23 20 19 19 19 21 31 29 24 24 23 21 21 22 23 24 25 26 27 27 28 28 27 27

GFSCGP_500_spd_138.txt.gz
Wind_Speed
24 27 28 30 29 32 30 31 32 30 31 30 32 34 39 38 41 43 45 48 50 52 54 56 57 59 61 63 64 65 66 67 67 66 66 65 65 66 66 67 67 68 68 68
29 31 33 34 34 28 28 31 32 33 34 34 36 38 41 41 44 46 49 51 51 53 55 58 60 63 65 67 68 69 70 69 69 68 66 66 67 69 70 71 72 73 73 73
37 38 35 34 30 28 30 33 36 36 37 39 41 40 44 42 45 49 50 52 55 58 60 61 63 64 66 67 67 68 68 68 68 68 70 71 71 71 71 70 71 71 71 72
41 38 34 33 32 32 34 35 39 40 42 44 45 45 46 48 49 50 50 52 54 55 57 60 62 64 65 65 64 65 67 68 70 72 73 74 75 73 72 71 69 64 60 59
41 36 34 34 35 36 39 40 42 44 47 48 47 47 47 50 53 53 53 55 56 57 59 60 60 61 63 63 66 68 70 71 72 72 72 70 68 65 61 56 53 57 58 57
38 37 37 37 38 40 41 43 46 47 48 49 48 49 48 55 53 54 54 54 55 57 57 59 61 64 66 66 65 67 68 68 67 66 63 60 56 54 53 51 49 46 49 53
35 38 40 41 42 42 43 46 46 48 48 48 51 51 50 52 51 51 51 51 54 56 59 61 62 63 63 63 63 61 59 58 59 57 54 52 49 46 45 46 47 50 52 51
39 40 41 41 42 45 45 44 44 46 47 49 53 52 53 52 49 49 50 54 56 58 59 59 59 61 60 55 54 54 53 52 51 50 47 44 42 40 40 41 42 36 37 42
42 43 42 42 43 44 44 43 44 47 48 50 51 52 53 48 47 46 49 51 53 55 56 56 57 54 50 49 48 48 50 49 46 43 41 37 35 35 35 34 38 38 41 45
44 44 45 46 45 45 43 44 45 45 45 47 48 49 46 42 42 44 47 49 51 52 54 53 53 50 46 45 43 41 39 37 34 32 30 27 29 30 31 26 29 31 26 25
43 43 45 45 43 42 42 43 41 40 42 44 45 49 38 38 41 43 44 46 50 51 51 52 48 40 36 29 29 34 32 27 23 22 23 27 27 26 21 19 16 11 11 12
44 44 43 41 38 38 37 36 37 38 36 42 43 44 33 38 41 42 44 46 48 48 47 44 37 30 25 31 32 28 24 22 18 21 25 26 25 21 18 18 17 9 7 9
42 44 39 36 37 35 35 35 37 40 40 41 42 43 34 39 39 40 43 46 46 47 43 37 32 28 29 30 25 22 19 16 20 18 16 20 13 12 12 10 10 9 7 9
38 34 33 33 30 34 35 35 37 40 41 42 43 41 33 39 41 42 45 46 45 41 36 34 29 30 27 25 21 17 12 18 19 10 5 4 11 11 14 12 10 8 5 4
32 31 33 33 33 32 36 39 41 38 34 40 37 41 40 39 40 43 45 43 38 34 30 29 29 25 23 21 17 14 13 19 10 14 18 22 26 27 27 29 27 25 21 19
29 33 34 37 39 39 39 39 35 31 33 37 38 37 38 37 42 42 40 35 32 27 27 26 22 22 18 18 16 15 14 19 8 14 13 13 15 17 20 22 24 26 26 27
38 37 37 39 39 40 40 32 33 36 38 39 37 35 39 40 39 37 34 30 26 27 26 23 20 19 17 15 15 11 18 7 10 7 6 7 10 13 16 17 19 22 21 22
34 37 38 37 38 40 35 35 34 34 33 34 35 37 38 38 36 31 27 25 24 25 23 22 22 19 16 16 16 14 15 11 4 7 4 5 6 8 11 12 14 15 15 16
37 38 35 37 39 37 33 34 30 31 30 36 36 33 34 32 29 23 22 23 22 22 21 21 19 17 16 16 15 17 19 15 11 9 7 4 3 3 5 8 10 10 10 11
39 38 37 37 38 36 32 27 29 34 34 35 33 32 33 29 23 21 22 22 22 22 20 18 17 16 17 17 17 18 19 16 13 11 8 6 3 3 5 8 9 10 10 9
38 38 38 36 35 28 29 27 32 32 34 33 28 30 31 26 23 22 25 23 21 21 19 18 17 18 18 18 16 17 24 17 15 13 11 10 10 9 8 8 10 10 10 10
36 36 34 33 31 31 28 30 32 32 31 30 30 34 28 24 23 24 23 21 21 21 19 18 18 17 18 18 15 25 25 18 19 16 15 13 13 13 13 12 13 15 15 13
37 33 33 31 33 36 38 34 33 31 31 30 32 31 25 23 21 22 26 24 21 20 18 18 18 18 17 17 20 29 25 20 20 19 17 16 17 17 16 16 17 19 19 17
34 33 32 32 29 29 31 32 33 32 33 34 34 27 24 22 22 22 23 25 24 22 19 18 19 20 18 19 28 32 24 22 22 22 20 19 20 20 20 20 21 24 24 23
32 30 29 26 27 31 31 33 33 33 35 35 30 25 25 24 25 26 26 25 26 25 22 21 20 21 20 19 26 35 28 24 24 23 21 21 21 22 22 22 24 26 27 28
31 26 27 26 28 30 32 34 35 34 37 31 24 26 27 28 29 29 29 28 28 27 27 24 23 22 22 22 24 35 31 26 26 25 24 24 24 23 24 25 27 29 30 30